Location: Vihti�l�
(61.3833°N, 23.0667°E)
Time: 04:22:44
(UTC+00:00)

Cosmos 858 Rocket - Pass Details

Date: 29 November 2020
Orbit: 755 x 775 km, 74.0° (Epoch: 19 January)

Event Time Altitude Azimuth Distance (km) Brightness Sun altitude
Rises 05:31:40 0° 225° (SW) 3,221 7.5 -10.3°
Reaches altitude 10° 05:34:03 10° 228° (SW) 2,301 6.8 -10.0°
Maximum altitude 05:39:15 64° 310° (NW) 851 4.5 -9.5°
Drops below altitude 10° 05:44:30 10° 33° (NNE) 2,327 7.1 -8.9°
Sets 05:46:56 0° 36° (NE) 3,260 7.8 -8.7°
